GW0206 Weather Reports


time (UTC)temp
F
wind
direction
speed
knots
gust
knots
rain 1hr
in
rain 24hr
in
rain mn
in
humidity
%
barometer
mb
20260904020004 67 326 0.9 4.3 0.00 0.90 0.90 97 1016.7
20260904015504 67 318 0.9 4.3 0.00 0.90 0.90 97 1016.7
20260904015004 67 299 0.9 5.2 0.00 0.90 0.90 97 1016.6
20260904014504 67 360 1.7 5.2 0.00 0.90 0.90 97 1016.7
20260904014007 67 338 1.7 4.3 0.00 0.90 0.90 97 1016.7
20260904013505 67 319 1.7 4.3 0.00 0.90 0.90 97 1016.5
20260904013005 67 336 1.7 4.3 0.00 0.90 0.90 96 1016.4
20260904012504 67 314 1.7 4.3 0.00 0.90 0.90 96 1016.3
20260904012005 67 302 1.7 3.5 0.00 0.90 0.90 96 1016.4
20260904011514 67 286 0.0 3.5 0.00 0.90 0.90 96 1016.3
20260904011003 67 294 0.9 3.5 0.00 0.90 0.90 96 1016.4
20260904010504 67 294 1.7 3.5 0.00 0.90 0.90 96 1016.5
20260904010010 67 311 0.9 3.5 0.00 0.90 0.90 96 1016.7
20260904005506 67 279 1.7 6.1 0.00 0.90 0.90 96 1016.6
20260904005003 67 289 1.7 6.1 0.00 0.90 0.90 96 1016.7
20260904004510 67 281 2.6 5.2 0.01 0.90 0.90 96 1017.0
20260904004005 67 263 1.7 5.2 0.02 0.90 0.90 96 1017.1
20260904003506 68 302 1.7 4.3 0.03 0.90 0.90 96 1017.2
20260904003012 68 333 1.7 4.3 0.04 0.90 0.90 96 1017.3
20260904002505 68 252 1.7 7.8 0.09 0.90 0.90 96 1017.3
20260904002004 68 234 2.6 7.8 0.16 0.90 0.90 95 1017.2
20260904001508 68 225 2.6 7.0 0.21 0.90 0.90 95 1017.3
20260904001006 68 238 2.6 8.7 0.30 0.90 0.90 95 1017.4
20260904000505 68 222 1.7 8.7 0.40 0.90 0.90 95 1017.3
20260904000010 68 241 3.5 10.4 0.47 0.90 0.90 95 1017.2
20260903235504 68 198 4.3 11.3 0.47 0.90 0.90 95 1017.3
20260903235004 68 241 5.2 13.9 0.47 0.90 0.90 95 1017.2
20260903234506 68 222 5.2 13.0 0.46 0.89 0.89 94 1017.4
20260903234005 68 227 6.1 13.0 0.45 0.88 0.88 94 1017.8
20260903233505 68 194 5.2 13.0 0.52 0.87 0.87 94 1018.1
20260903233010 69 194 5.2 10.4 0.58 0.86 0.86 94 1018.4
20260903232503 69 219 2.6 11.3 0.57 0.81 0.81 93 1018.9
20260903232003 69 244 2.6 18.2 0.50 0.74 0.74 93 1019.3
20260903231514 70 198 7.8 19.1 0.45 0.69 0.69 91 1018.5
20260903231002 71 224 11.3 22.6 0.36 0.60 0.60 90 1017.9
20260903230506 73 197 12.2 29.5 0.26 0.50 0.50 88 1018.2
20260903230013 75 139 7.8 29.5 0.19 0.43 0.43 90 1017.6
20260903225505 76 261 1.7 6.1 0.19 0.43 0.43 89 1016.2
20260903225003 77 246 0.9 7.0 0.19 0.43 0.43 88 1016.0
20260903224525 77 204 0.9 7.0 0.19 0.43 0.43 87 1015.7
20260903224003 79 275 4.3 6.1 0.19 0.43 0.43 84 1015.2
20260903223503 80 283 1.7 6.1 0.11 0.35 0.35 82 1015.6
20260903223012 81 263 0.9 6.1 0.04 0.28 0.28 80 1015.1
20260903222506 81 234 3.5 6.1 0.00 0.24 0.24 77 1014.9
20260903222008 81 257 2.6 4.3 0.00 0.24 0.24 77 1015.0
20260903221515 82 221 1.7 3.5 0.00 0.24 0.24 77 1015.0
20260903221003 82 309 0.0 6.1 0.00 0.24 0.24 76 1015.0
20260903220503 82 252 1.7 6.1 0.00 0.24 0.24 76 1014.7
20260903220023 83 238 1.7 5.2 0.00 0.24 0.24 75 1014.7
20260903215504 83 217 1.7 5.2 0.00 0.24 0.24 74 1014.7
20260903215004 84 230 1.7 6.1 0.00 0.24 0.24 73 1014.6
20260903214516 85 215 1.7 6.1 0.00 0.24 0.24 72 1014.9
20260903214007 86 229 1.7 5.2 0.00 0.24 0.24 71 1014.7
20260903213506 86 182 2.6 5.2 0.00 0.24 0.24 70 1014.7
20260903213022 87 261 0.0 6.1 0.00 0.24 0.24 68 1014.7
20260903212505 88 188 1.7 6.1 0.00 0.24 0.24 66 1014.4
20260903212007 90 242 2.6 8.7 0.00 0.24 0.24 65 1014.1
20260903211514 90 140 1.7 8.7 0.00 0.24 0.24 64 1014.3
20260903211007 91 111 3.5 10.4 0.00 0.24 0.24 63 1013.9
20260903210507 91 95 6.1 10.4 0.00 0.24 0.24 62 1013.8
20260903210025 92 102 5.2 11.3 0.00 0.24 0.24 62 1013.7
20260903205506 93 127 3.5 13.0 0.00 0.24 0.24 62 1013.8
20260903205009 94 73 6.1 13.0 0.00 0.24 0.24 60 1013.7
20260903204517 94 76 6.1 11.3 0.00 0.24 0.24 59 1013.7
20260903204007 94 80 4.3 13.0 0.00 0.24 0.24 59 1013.6
20260903203510 94 88 6.1 13.0 0.00 0.24 0.24 60 1013.7
20260903203019 94 89 6.1 11.3 0.00 0.24 0.24 59 1013.7
20260903202508 94 107 5.2 11.3 0.00 0.24 0.24 60 1013.5
20260903202012 94 101 5.2 9.6 0.00 0.24 0.24 60 1013.6
20260903201523 94 58 3.5 12.2 0.00 0.24 0.24 61 1013.6
20260903201007 94 97 5.2 13.9 0.00 0.24 0.24 60 1013.7
20260903200510 94 94 5.2 13.9 0.00 0.24 0.24 61 1013.9
20260903200016 93 108 3.5 11.3 0.00 0.24 0.24 61 1014.0
20260903195507 93 95 3.5 11.3 0.00 0.24 0.24 61 1014.0
20260903195009 93 73 5.2 13.0 0.00 0.24 0.24 60 1014.1
20260903194524 93 92 7.0 13.0 0.00 0.24 0.24 59 1013.9
20260903194014 94 108 6.1 12.2 0.00 0.24 0.24 60 1014.1
20260903193512 94 91 5.2 13.9 0.00 0.24 0.24 58 1014.2
20260903193020 94 61 2.6 14.8 0.00 0.24 0.24 58 1014.6
20260903192511 94 119 6.1 14.8 0.00 0.24 0.24 58 1014.7
20260903192009 94 147 4.3 10.4 0.00 0.24 0.24 59 1014.7
20260903191524 94 98 5.2 14.8 0.00 0.24 0.24 60 1014.7
20260903191010 94 97 7.0 14.8 0.00 0.24 0.24 61 1014.7
20260903190510 94 55 7.0 13.0 0.00 0.24 0.24 60 1014.9
20260903190024 94 95 2.6 11.3 0.00 0.24 0.24 65 1015.1
20260903185513 93 78 5.2 12.2 0.00 0.24 0.24 62 1015.2
20260903185012 93 15 3.5 12.2 0.00 0.24 0.24 63 1015.3
20260903184523 93 57 7.0 10.4 0.00 0.24 0.24 64 1015.5
20260903184013 92 67 4.3 13.0 0.00 0.24 0.24 63 1015.5
20260903183509 92 111 5.2 13.0 0.00 0.24 0.24 64 1015.6
20260903183023 92 96 4.3 10.4 0.00 0.24 0.24 65 1015.7
20260903182510 92 75 6.1 12.2 0.00 0.24 0.24 65 1015.8
20260903182013 92 144 5.2 12.2 0.00 0.24 0.24 66 1015.8
20260903181526 92 111 4.3 12.2 0.00 0.24 0.24 67 1015.9
20260903181011 91 140 6.1 12.2 0.00 0.24 0.24 65 1015.9
20260903180513 91 38 4.3 9.6 0.00 0.24 0.24 65 1015.9
20260903180026 91 92 3.5 8.7 0.00 0.24 0.24 69 1015.9
20260903175514 91 59 3.5 10.4 0.00 0.24 0.24 68 1016.0
20260903175014 90 95 2.6 12.2 0.00 0.24 0.24 70 1016.3
20260903174529 90 148 6.1 12.2 0.00 0.24 0.24 69 1016.3
20260903174015 90 54 6.1 11.3 0.00 0.24 0.24 71 1016.3
20260903173510 89 40 3.5 8.7 0.00 0.24 0.24 72 1016.4
20260903173028 89 49 2.6 8.7 0.00 0.24 0.24 73 1016.4
20260903172514 89 22 2.6 9.6 0.00 0.24 0.24 73 1016.5
20260903172012 88 113 5.2 9.6 0.00 0.24 0.24 75 1016.5
20260903171526 88 5 1.7 7.8 0.00 0.24 0.24 76 1016.6
20260903171011 88 326 2.6 7.8 0.00 0.24 0.24 77 1016.7
20260903170511 87 9 2.6 8.7 0.00 0.24 0.24 76 1016.7
20260903170032 87 15 2.6 8.7 0.00 0.24 0.24 74 1016.8
20260903165517 87 41 2.6 7.8 0.00 0.24 0.24 76 1016.9
20260903165012 86 23 3.5 7.8 0.00 0.24 0.24 76 1017.0
20260903164530 86 36 4.3 8.7 0.00 0.24 0.24 78 1017.0
20260903164003 86 46 4.3 8.7 0.00 0.24 0.24 76 1017.0
20260903163502 86 13 3.5 7.0 0.00 0.24 0.24 77 1017.0
20260903163004 85 53 2.6 6.1 0.00 0.24 0.24 78 1017.0
20260903162501 85 325 1.7 7.8 0.00 0.24 0.24 81 1017.1
20260903162002 84 26 2.6 7.8 0.00 0.24 0.24 80 1017.1
20260903161502 83 13 3.5 7.8 0.00 0.24 0.24 79 1017.1
20260903161001 83 57 3.5 7.0 0.00 0.24 0.24 80 1017.2
20260903160502 82 23 2.6 7.8 0.00 0.24 0.24 82 1017.2
20260903160009 82 348 1.7 7.8 0.00 0.24 0.24 79 1017.3
20260903155503 82 15 2.6 7.8 0.00 0.24 0.24 82 1017.4
20260903155002 81 26 3.5 7.0 0.00 0.24 0.24 80 1017.3
20260903154505 81 350 2.6 7.8 0.00 0.24 0.24 82 1017.3
20260903154005 81 5 1.7 7.8 0.00 0.24 0.24 81 1017.4
20260903153501 81 31 1.7 7.8 0.00 0.24 0.24 81 1017.4
20260903153003 81 348 3.5 7.8 0.00 0.24 0.24 83 1017.4
20260903152504 81 334 2.6 9.6 0.00 0.24 0.24 83 1017.5
20260903152005 80 5 2.6 9.6 0.00 0.24 0.24 85 1017.5
20260903151502 79 9 3.5 7.8 0.00 0.24 0.24 85 1017.5
20260903151002 78 327 0.9 7.0 0.00 0.24 0.24 91 1017.4
20260903150503 77 13 2.6 7.0 0.00 0.24 0.24 91 1017.4
20260903150009 76 326 0.9 7.0 0.00 0.24 0.24 91 1017.4
20260903145503 76 360 2.6 7.8 0.00 0.24 0.24 90 1017.5
20260903145007 75 11 3.5 7.8 0.00 0.24 0.24 90 1017.5
20260903144518 75 53 2.6 6.1 0.00 0.24 0.24 92 1017.4
20260903144001 75 84 1.7 5.2 0.00 0.24 0.24 94 1017.5
20260903143503 75 355 1.7 5.2 0.00 0.24 0.24 94 1017.5
20260903143016 74 47 1.7 4.3 0.00 0.24 0.24 95 1017.4
20260903142505 74 22 1.7 3.5 0.00 0.24 0.24 95 1017.4
20260903142002 73 342 0.9 3.5 0.00 0.24 0.24 96 1017.4
20260903141504 73 11 1.7 3.5 0.00 0.24 0.24 96 1017.4
20260903141006 72 28 1.7 3.5 0.00 0.24 0.24 96 1017.3
20260903140507 72 355 0.0 3.5 0.00 0.24 0.24 96 1017.3
20260903140006 72 338 0.9 3.5 0.00 0.24 0.24 96 1017.3
20260903135502 72 337 0.9 2.6 0.01 0.24 0.24 95 1017.2
20260903135002 71 16 0.0 2.6 0.02 0.24 0.24 95 1017.1
20260903134507 71 346 0.0 2.6 0.08 0.24 0.24 96 1017.3
20260903134005 71 294 0.0 5.2 0.18 0.24 0.24 95 1017.2
20260903133503 70 284 1.7 6.1 0.22 0.24 0.24 95 1017.3
20260903133004 70 348 1.7 6.1 0.24 0.24 0.24 95 1017.4
20260903132503 70 360 2.6 5.2 0.24 0.24 0.24 95 1017.6
20260903132004 70 355 0.0 5.2 0.24 0.24 0.24 94 1017.7
20260903131510 70 26 1.7 5.2 0.24 0.24 0.24 94 1017.9
20260903131004 70 344 0.9 3.5 0.24 0.24 0.24 94 1018.0
20260903130503 70 31 0.0 7.0 0.24 0.24 0.24 93 1018.2
20260903130016 70 324 2.6 7.0 0.24 0.24 0.24 93 1017.7
20260903125510 70 348 2.6 8.7 0.23 0.23 0.23 92 1017.8
20260903125003 71 317 4.3 8.7 0.22 0.22 0.22 90 1017.6
20260903124507 71 304 2.6 6.1 0.16 0.16 0.16 90 1017.9
20260903124002 72 5 0.9 2.6 0.06 0.06 0.06 89 1018.3
20260903123504 72 309 0.9 3.5 0.02 0.02 0.02 87 1018.2
20260903123010 72 289 0.0 5.2 0.00 0.00 0.00 87 1018.3
20260903122504 72 315 2.6 5.2 0.00 0.00 0.00 86 1018.1
20260903122003 72 264 1.7 5.2 0.00 0.00 0.00 87 1018.0
20260903121505 72 294 1.7 6.1 0.00 0.00 0.00 86 1018.0
20260903121002 72 289 1.7 6.1 0.00 0.00 0.00 86 1018.0
20260903120509 72 248 2.6 6.1 0.00 0.00 0.00 86 1017.9
20260903120013 73 242 1.7 6.1 0.00 0.00 0.00 86 1017.9
20260903115503 73 229 1.7 7.8 0.00 0.00 0.00 86 1018.0
20260903115003 73 209 1.7 7.8 0.00 0.00 0.00 86 1017.8
20260903114515 73 236 3.5 7.0 0.00 0.00 0.00 86 1017.6
20260903114013 73 237 2.6 7.8 0.00 0.00 0.00 87 1017.6
20260903113503 73 242 4.3 7.8 0.00 0.00 0.00 87 1017.7
20260903113012 73 234 2.6 7.8 0.00 0.00 0.00 87 1017.8
20260903112514 73 240 5.2 7.8 0.00 0.00 0.00 87 1017.8
20260903112003 73 224 3.5 6.1 0.00 0.00 0.00 88 1017.5
20260903111508 73 272 1.7 8.7 0.00 0.00 0.00 89 1017.3
20260903111008 73 255 2.6 11.3 0.00 0.00 0.00 90 1017.3
20260903110502 73 234 5.2 11.3 0.00 0.00 0.00 92 1017.3
20260903110007 73 196 2.6 7.0 0.00 0.00 0.00 93 1017.1
20260903105503 73 198 1.7 7.0 0.00 0.00 0.00 93 1017.2
20260903105007 73 234 3.5 6.1 0.00 0.00 0.00 93 1017.0
20260903104514 73 360 0.9 6.1 0.00 0.00 0.00 93 1016.6
20260903104005 73 56 1.7 6.1 0.00 0.00 0.00 93 1016.6
20260903103506 73 85 0.9 3.5 0.00 0.00 0.00 93 1016.6
20260903103026 73 26 0.9 3.5 0.00 0.00 0.00 93 1016.6
20260903102512 73 26 0.9 3.5 0.00 0.00 0.00 93 1016.6
20260903102005 73 51 0.0 2.6 0.00 0.00 0.00 93 1016.7
20260903101520 73 50 0.9 2.6 0.00 0.00 0.00 93 1016.7
20260903101011 73 56 0.0 1.7 0.00 0.00 0.00 93 1016.7
20260903100503 73 46 0.0 1.7 0.00 0.00 0.00 93 1016.8
20260903100007 73 46 0.0 2.6 0.00 0.00 0.00 93 1016.8
20260903095503 73 46 0.0 2.6 0.00 0.00 0.00 93 1016.7
20260903095002 73 78 0.0 1.7 0.00 0.00 0.00 93 1016.6
20260903094511 73 78 0.0 1.7 0.00 0.00 0.00 93 1016.5
20260903094006 73 78 0.0 1.7 0.00 0.00 0.00 92 1016.4
20260903093506 73 78 0.0 1.7 0.00 0.00 0.00 93 1016.4
20260903093029 73 78 0.0 1.7 0.00 0.00 0.00 93 1016.4
20260903092503 73 78 0.0 1.7 0.00 0.00 0.00 93 1016.4
20260903092013 73 78 0.0 1.7 0.00 0.00 0.00 93 1016.5
20260903091527 73 78 0.0 1.7 0.00 0.00 0.00 93 1016.5
20260903091003 73 78 0.0 2.6 0.00 0.00 0.00 92 1016.5
20260903090506 73 78 0.0 2.6 0.00 0.00 0.00 92 1016.3
20260903090029 73 51 0.0 1.7 0.00 0.00 0.00 92 1016.3
20260903085520 73 51 0.0 0.9 0.00 0.00 0.00 92 1016.3
20260903085003 73 51 0.0 1.7 0.00 0.00 0.00 92 1016.2
20260903084509 73 51 0.0 1.7 0.00 0.00 0.00 92 1016.2
20260903084006 73 51 0.0 1.7 0.00 0.00 0.00 92 1016.3
20260903083504 73 51 0.0 2.6 0.00 0.00 0.00 91 1016.3
20260903083013 74 51 0.0 2.6 0.00 0.00 0.00 91 1016.3
20260903081534 74 51 0.0 1.7 0.00 0.00 0.00 90 1016.5
20260903081009 74 51 0.0 1.7 0.00 0.00 0.00 90 1016.5
20260903080514 74 51 0.0 1.7 0.00 0.00 0.00 90 1016.7
20260903080029 74 51 0.0 1.7 0.00 0.00 0.00 89 1016.6
20260903075511 74 188 0.0 1.7 0.00 0.00 0.00 89 1016.7
20260903075010 75 188 0.0 1.7 0.00 0.00 0.00 89 1016.7
20260903074534 75 188 0.0 1.7 0.00 0.00 0.00 88 1016.6
20260903074006 75 188 0.0 0.9 0.00 0.00 0.00 88 1016.7
20260903073510 75 188 0.0 0.9 0.00 0.00 0.00 88 1016.6
20260903073016 75 188 0.0 0.9 0.00 0.00 0.00 88 1016.5
20260903072506 76 188 0.0 0.9 0.00 0.00 0.00 87 1016.4
20260903072011 76 188 0.0 2.6 0.00 0.00 0.00 87 1016.4
20260903071519 76 188 0.0 2.6 0.00 0.00 0.00 87 1016.5
20260903071007 76 117 0.0 3.5 0.00 0.00 0.00 87 1016.5
20260903070513 76 185 0.0 3.5 0.00 0.00 0.00 87 1016.5
20260903070021 76 166 0.0 4.3 0.00 0.00 0.00 87 1016.5
20260903065515 76 166 1.7 4.3 0.00 0.00 0.00 87 1016.9
20260903065018 76 167 0.9 4.3 0.00 0.00 0.00 87 1016.9
20260903064515 76 71 0.0 0.9 0.00 0.00 0.00 87 1016.6
20260903064010 76 71 0.0 1.7 0.00 0.00 0.00 86 1016.5
20260903063518 76 71 0.0 1.7 0.00 0.00 0.00 86 1016.4
20260903063031 76 71 0.0 2.6 0.00 0.00 0.00 86 1016.4
20260903062509 76 71 0.0 2.6 0.00 0.00 0.00 85 1016.3
20260903062014 76 71 0.9 2.6 0.00 0.00 0.00 85 1016.2
20260903061531 77 78 0.9 2.6 0.00 0.00 0.00 85 1016.3
20260903061009 77 65 0.9 2.6 0.00 0.00 0.00 84 1016.2
20260903060507 77 65 0.9 5.2 0.00 0.00 0.00 84 1016.2
20260903060021 77 71 0.9 5.2 0.00 0.00 0.00 84 1016.1
20260903055513 77 75 0.9 3.5 0.00 0.00 0.00 84 1016.1
20260903055008 77 55 1.7 5.2 0.00 0.00 0.00 84 1016.2
20260903054527 77 62 2.6 5.2 0.00 0.00 0.00 84 1016.2
20260903054014 77 80 0.9 3.5 0.00 0.00 0.00 84 1016.3
20260903053516 77 144 0.9 3.5 0.00 0.00 0.00 84 1016.3
20260903053028 77 76 0.0 6.1 0.00 0.00 0.00 83 1016.2
20260903052515 77 83 2.6 6.1 0.00 0.00 0.00 83 1016.2
20260903052017 77 100 0.9 7.8 0.00 0.00 0.00 83 1016.2
20260903051533 77 77 1.7 7.8 0.00 0.00 0.00 83 1016.2
20260903051017 77 59 1.7 5.2 0.00 0.00 0.00 83 1016.1
20260903050516 77 39 1.7 5.2 0.00 0.00 0.00 83 1016.0
20260903050033 78 54 0.9 3.5 0.00 0.00 0.00 83 1016.0
20260903045508 78 78 0.9 3.5 0.00 0.00 0.00 83 1016.0
20260903045007 78 53 0.0 4.3 0.00 0.00 0.00 83 1015.9
20260903044526 78 92 1.7 4.3 0.00 0.00 0.00 83 1015.8
20260903044014 78 28 0.9 5.2 0.00 0.00 0.00 83 1015.7
20260903043512 78 64 1.7 6.1 0.00 0.00 0.00 83 1015.7
20260903043031 78 42 2.6 6.1 0.00 0.00 0.00 83 1015.6
20260903042504 78 50 1.7 7.0 0.00 0.00 0.00 83 1015.5
20260903042002 78 42 2.6 7.0 0.00 0.00 0.00 83 1015.5
20260903041511 78 57 3.5 7.0 0.00 0.00 0.00 83 1015.5
20260903041003 78 57 2.6 6.1 0.00 0.00 0.00 83 1015.6
20260903040506 78 42 2.6 7.0 0.00 0.00 0.00 83 1015.5
20260903040016 78 60 2.6 7.0 0.00 0.00 0.00 83 1015.5
20260903035503 78 44 2.6 7.0 0.00 0.00 0.00 83 1015.4
20260903035006 79 35 3.5 7.0 0.00 0.00 0.00 83 1015.3
20260903034523 79 76 2.6 6.1 0.00 0.00 0.00 83 1015.3
20260903034012 79 38 2.6 6.1 0.00 0.00 0.00 83 1015.3
20260903033503 79 33 1.7 6.1 0.00 0.00 0.00 83 1015.3
20260903033013 79 72 1.7 6.1 0.00 0.00 0.00 83 1015.4
20260903032508 79 56 2.6 4.3 0.00 0.00 0.00 84 1015.5
20260903032016 79 32 1.7 4.3 0.00 0.00 0.00 84 1015.7
20260903031521 79 49 1.7 4.3 0.00 0.00 0.00 84 1015.8
20260903031004 79 52 1.7 4.3 0.00 0.00 0.00 84 1015.9
20260903030503 79 42 1.7 3.5 0.00 0.00 0.00 84 1016.0
20260903030009 79 57 1.7 3.5 0.00 0.00 0.00 84 1016.1
20260903025507 79 44 0.9 4.3 0.00 0.00 0.00 84 1016.2
20260903025006 79 42 0.9 4.3 0.00 0.00 0.00 84 1016.2
20260903024513 79 31 2.6 5.2 0.00 0.00 0.00 84 1016.2
20260903024004 79 53 2.6 5.2 0.00 0.00 0.00 84 1016.2
20260903023509 79 61 2.6 6.1 0.00 0.00 0.00 84 1016.2
20260903023028 79 37 2.6 7.8 0.00 0.00 0.00 84 1016.2
20260903022511 80 61 3.5 7.8 0.00 0.00 0.00 84 1016.1
20260903022015 80 51 3.5 7.0 0.00 0.00 0.00 84 1016.1
20260903021537 80 61 3.5 7.8 0.00 0.00 0.00 84 1016.2
20260903021018 80 52 2.6 7.8 0.00 0.00 0.00 84 1016.1
20260903020510 80 61 2.6 7.0 0.00 0.00 0.00 84 1016.2